Total_Precipitation_Accumulation
0.33 0.41 0.44 0.45 0.49 0.57 0.60 0.61 0.71 0.93 1.12 1.24 1.38 1.54 1.49 1.49 1.57 1.56 1.43 1.36 1.25 1.18 1.14 1.07 1.05 1.04 1.02 1.00 0.97 0.93 0.88 0.84 0.87 0.92 0.87 0.83 0.79 0.77 0.72 0.66 0.65 0.65 0.66
0.34 0.40 0.46 0.51 0.51 0.56 0.63 0.63 0.62 0.77 0.95 1.07 1.21 1.44 1.54 1.58 1.72 1.70 1.60 1.56 1.36 1.18 1.13 1.10 1.06 1.04 1.05 1.02 0.99 0.98 0.97 0.94 0.91 0.96 0.95 0.88 0.83 0.77 0.69 0.65 0.62 0.63 0.70
0.34 0.39 0.45 0.52 0.56 0.57 0.59 0.63 0.61 0.68 0.85 1.07 1.25 1.43 1.70 1.72 1.75 1.74 1.61 1.62 1.56 1.30 1.16 1.11 1.11 1.08 1.08 1.07 1.00 0.96 1.00 1.04 1.02 1.00 1.15 1.16 0.97 0.80 0.70 0.67 0.64 0.64 0.63
0.35 0.40 0.47 0.51 0.60 0.59 0.60 0.62 0.65 0.68 0.80 1.01 1.19 1.23 1.36 1.45 1.37 1.40 1.43 1.49 1.63 1.51 1.24 1.11 1.07 1.05 1.06 1.07 1.10 1.02 0.98 1.04 1.04 1.00 0.97 0.96 0.91 0.97 0.84 0.63 0.57 0.55 0.56
0.38 0.44 0.47 0.49 0.60 0.63 0.62 0.64 0.71 0.71 0.76 0.93 1.09 1.19 1.22 1.26 1.32 1.31 1.30 1.36 1.44 1.50 1.38 1.18 1.13 1.11 1.08 1.04 1.07 1.10 1.04 1.02 1.01 1.03 0.98 0.91 0.80 0.82 1.00 0.77 0.54 0.50 0.49
0.43 0.47 0.50 0.55 0.64 0.68 0.68 0.69 0.73 0.75 0.74 0.83 0.98 1.10 1.14 1.20 1.31 1.31 1.21 1.20 1.31 1.39 1.39 1.30 1.16 1.12 1.09 1.05 1.06 1.08 1.05 1.04 1.03 1.01 1.02 1.05 1.05 0.91 0.97 0.93 0.64 0.54 0.49
0.42 0.44 0.48 0.57 0.66 0.71 0.69 0.68 0.70 0.79 0.81 0.86 0.90 0.94 1.03 1.12 1.21 1.28 1.28 1.26 1.26 1.32 1.37 1.34 1.22 1.12 1.12 1.09 1.09 1.15 1.10 1.08 1.08 1.05 1.03 1.03 1.03 0.98 1.02 1.09 0.91 0.69 0.54
0.37 0.41 0.40 0.45 0.57 0.70 0.76 0.72 0.66 0.70 0.80 0.89 0.89 0.91 0.99 1.08 1.08 1.12 1.21 1.25 1.24 1.29 1.39 1.40 1.33 1.22 1.20 1.22 1.22 1.25 1.26 1.23 1.18 1.13 1.09 1.11 1.05 1.05 1.10 1.19 1.25 1.09 0.70
0.35 0.35 0.34 0.38 0.44 0.53 0.63 0.73 0.71 0.69 0.70 0.82 0.94 0.92 0.98 1.06 1.04 1.03 1.07 1.10 1.09 1.12 1.22 1.33 1.38 1.38 1.34 1.31 1.36 1.37 1.34 1.36 1.35 1.29 1.24 1.22 1.14 1.08 1.09 1.15 1.34 1.61 1.36
0.37 0.33 0.31 0.36 0.40 0.44 0.48 0.62 0.74 0.75 0.76 0.77 0.88 0.95 0.97 1.02 1.07 1.07 1.06 1.09 1.12 1.13 1.13 1.17 1.22 1.28 1.33 1.34 1.33 1.35 1.37 1.43 1.44 1.45 1.44 1.38 1.31 1.28 1.24 1.24 1.30 1.51 1.74
0.48 0.42 0.34 0.35 0.39 0.46 0.52 0.53 0.66 0.76 0.80 0.77 0.80 0.90 0.98 1.00 1.09 1.16 1.15 1.13 1.20 1.25 1.22 1.19 1.16 1.13 1.16 1.27 1.36 1.36 1.38 1.43 1.42 1.43 1.46 1.43 1.38 1.41 1.41 1.42 1.41 1.45 1.65
0.46 0.43 0.37 0.37 0.41 0.48 0.53 0.54 0.64 0.70 0.77 0.81 0.82 0.85 0.97 1.01 1.06 1.13 1.20 1.19 1.21 1.26 1.25 1.25 1.21 1.10 1.06 1.13 1.23 1.29 1.31 1.35 1.34 1.34 1.40 1.40 1.40 1.44 1.45 1.50 1.49 1.47 1.52
0.41 0.38 0.38 0.40 0.47 0.51 0.52 0.57 0.65 0.67 0.70 0.75 0.85 0.87 0.90 0.99 1.10 1.16 1.21 1.22 1.19 1.23 1.27 1.28 1.27 1.20 1.15 1.17 1.19 1.22 1.25 1.25 1.24 1.23 1.28 1.33 1.42 1.47 1.45 1.47 1.48 1.45 1.41
0.38 0.39 0.41 0.45 0.51 0.54 0.56 0.61 0.66 0.69 0.75 0.78 0.79 0.90 0.97 0.98 1.04 1.14 1.20 1.26 1.27 1.26 1.29 1.29 1.30 1.30 1.31 1.42 1.41 1.31 1.29 1.22 1.18 1.17 1.22 1.28 1.41 1.51 1.59 1.68 1.60 1.53 1.60
0.40 0.45 0.48 0.51 0.58 0.61 0.62 0.69 0.75 0.77 0.86 0.97 0.94 0.92 0.98 0.99 0.98 1.05 1.09 1.16 1.24 1.25 1.23 1.20 1.21 1.25 1.37 1.68 1.72 1.53 1.38 1.29 1.23 1.17 1.15 1.19 1.39 1.65 1.90 2.04 1.97 1.94 2.02
0.46 0.50 0.51 0.55 0.64 0.71 0.80 0.88 0.95 0.95 0.99 1.09 1.10 0.99 0.96 0.96 0.99 1.01 1.04 1.07 1.12 1.15 1.14 1.12 1.11 1.19 1.35 1.81 1.90 1.71 1.43 1.34 1.31 1.27 1.20 1.19 1.30 1.42 1.63 1.88 1.96 2.05 2.19
0.46 0.50 0.53 0.59 0.68 0.80 0.95 1.07 1.06 1.02 1.07 1.12 1.18 1.14 1.01 0.95 0.96 0.96 0.96 0.97 0.99 1.03 1.03 1.03 1.06 1.07 1.25 1.73 1.78 1.61 1.32 1.22 1.22 1.19 1.14 1.15 1.16 1.25 1.16 1.31 1.45 1.52 1.73
0.50 0.56 0.63 0.64 0.70 0.83 0.96 1.05 1.08 1.06 1.12 1.16 1.13 1.10 1.00 0.91 0.92 0.96 0.93 0.87 0.88 0.93 0.96 0.98 1.00 0.98 1.04 1.48 1.72 1.58 1.18 1.11 1.15 1.14 1.13 1.13 1.10 1.13 1.25 1.31 1.32 1.21 1.23
0.52 0.59 0.64 0.65 0.68 0.76 0.87 0.93 0.96 0.96 1.00 1.06 1.05 1.03 0.98 0.93 0.95 1.00 0.95 0.87 0.86 0.89 0.89 0.89 0.93 0.94 0.97 1.27 1.68 1.74 1.27 1.22 1.17 1.16 1.27 1.33 1.23 1.32 1.55 1.63 1.56 1.32 1.15
0.39 0.50 0.59 0.56 0.57 0.66 0.72 0.76 0.82 0.83 0.84 0.90 0.93 0.98 0.94 0.92 0.97 1.00 0.97 0.94 0.91 0.94 0.96 0.94 0.96 0.96 0.92 1.15 1.59 1.90 1.47 1.39 1.25 1.21 1.33 1.65 1.61 1.63 1.71 1.70 1.73 1.67 1.33
0.33 0.38 0.49 0.57 0.61 0.69 0.72 0.73 0.76 0.79 0.78 0.78 0.81 0.92 0.94 0.92 0.94 0.97 1.00 1.00 1.01 1.03 1.05 1.02 1.00 0.98 0.95 1.02 1.33 1.83 1.72 1.52 1.43 1.40 1.42 1.52 1.67 1.68 1.73 1.79 1.74 1.80 1.72
0.32 0.37 0.46 0.58 0.66 0.70 0.69 0.67 0.74 0.76 0.72 0.75 0.78 0.83 0.91 0.90 0.92 0.95 0.95 0.94 1.01 1.09 1.11 1.10 1.07 1.03 1.01 1.03 1.19 1.55 1.80 1.73 1.51 1.44 1.32 1.40 1.62 1.68 1.72 1.69 1.72 1.85 1.88
0.34 0.39 0.47 0.56 0.64 0.65 0.64 0.68 0.73 0.74 0.72 0.74 0.78 0.83 0.89 0.90 0.88 0.89 0.91 0.88 0.90 1.01 1.08 1.10 1.11 1.07 1.04 1.09 1.25 1.33 1.45 1.58 1.46 1.43 1.62 1.61 1.62 1.56 1.49 1.53 1.62 1.60 1.54
0.39 0.42 0.46 0.54 0.59 0.58 0.61 0.70 0.75 0.74 0.72 0.78 0.83 0.86 0.92 0.95 0.90 0.84 0.85 0.86 0.92 1.09 1.19 1.16 1.13 1.07 1.04 1.12 1.32 1.37 1.33 1.41 1.43 1.43 1.55 1.55 1.42 1.32 1.30 1.38 1.40 1.36 1.42
0.47 0.48 0.52 0.59 0.58 0.53 0.55 0.66 0.75 0.77 0.77 0.78 0.84 0.90 0.94 0.95 0.93 0.87 0.87 0.91 0.96 1.20 1.47 1.42 1.37 1.38 1.37 1.44 1.76 1.76 1.63 1.63 1.66 1.67 1.64 1.50 1.35 1.27 1.19 1.15 1.14 1.17 1.32
0.54 0.53 0.52 0.53 0.53 0.50 0.51 0.60 0.69 0.75 0.77 0.77 0.80 0.87 0.95 0.98 0.93 0.88 0.90 0.94 0.97 1.08 1.12 1.15 1.28 1.30 1.47 1.64 1.64 1.57 1.56 1.61 1.66 1.68 1.58 1.36 1.23 1.17 1.11 1.11 1.13 1.12 1.16